Tracking 31027 objects as of 19-Jul-2025
HD Live streaming from Space Station
objects crossing your sky now

SL-14 DEB

Track SL-14 DEB now!
10-day predictions


NORAD ID: 45273
Int'l Code: 1991-056K
Perigee: 1,006.9 km
Apogee: 1,175.4 km
Inclination: 82.6 °
Period: 106.9 minutes
Semi major axis: 7462 km
RCS: Unknown
Launch date: August 15, 1991
Source: Commonwealth of Independent States (former USSR) (CIS)
Launch site: PLESETSK MISSILE AND SPACE COMPLEX (PKMTR)

Note: This is SATELLITE DEBRIS
Your satellite tracking list
FENGYUN 1C DEB
Track 1 satellite(s)




NASA's NSSDC Master Catalog

Two Line Element Set (TLE):
1 45273U 91056K   25199.31145367  .00000998  00000-0  15694-2 0  9991
2 45273  82.5662 311.2088 0112857 293.0038  65.9229 13.46816141265960
Source of the keplerian elements: AFSPC